Regional Weather Roundup
Issued by NWS

Home | Current Version | Previous Version | Text Only | Print | Product List | Glossary On
Versions: 1 2 3 4 5 6 7 8 9 10 11 12 13 14 15 16 17 18 19 20 21 22 23 24 25 26 27 28 29 30 31 32 33 34 35 36 37 38 39 40 41 42 43 44 45 46 47 48 49 50
000
ASUS45 KBOU 231007
RWRCO

WEATHER ROUNDUP FOR COLORADO
NATIONAL WEATHER SERVICE DENVER/BOULDER CO
400 AM MDT TUE SEP 23 2014

NOTE: "FAIR" INDICATES FEW OR NO CLOUDS BELOW 12000 FEET WITH NO
SIGNIFICANT WEATHER AND/OR OBSTRUCTIONS TO VISIBILITY.

COZ001>005-013-030-031-231100-
...NORTHWEST COLORADO...

CITY           SKY/WX    TMP DP  RH WIND       PRES   REMARKS
CRAIG          CLOUDY    51  48  89 CALM      30.24S
HAYDEN         CLOUDY    54  45  71 CALM      30.25R
MEEKER         CLOUDY    51  48  89 CALM      30.26R
MOUNT WERNER   NOT AVBL
STEAMBOAT SPGS CLOUDY    50  47  90 CALM      30.26S
WALDEN         CLOUDY    46  43  87 N3        30.29R
$$

COZ006>008-011-231100-
...WEST CENTRAL VALLEYS...

CITY           SKY/WX    TMP DP  RH WIND       PRES   REMARKS
GRAND JUNCTION MOCLDY    58  52  80 E6        30.16S
MONTROSE       PTCLDY    54  48  80 SE7       30.24F
EAGLE          CLOUDY    52  50  93 E3        30.30R
RIFLE          MOCLDY    56  50  80 CALM      30.22S
DELTA          RAIN      61  55  79 CALM      30.21S
NUCLA          PTCLDY    54  45  71 SE7       30.27F
$$

COZ017>023-064>068-231100-
...SOUTHWEST COLORADO...

CITY           SKY/WX    TMP DP  RH WIND       PRES   REMARKS
DURANGO        MOCLDY    47  45  93 CALM      30.30F
CORTEZ         CLEAR     46  43  89 E3        30.26S
PAGOSA SPRINGS CLEAR     45  44  96 CALM      30.38S
TELLURIDE      NOT AVBL
WOLF CREEK PAS MOCLDY    37  37 100 SW14G21   30.58S FOG
$$

COZ009-010-012-014-032>034-037-058>063-231100-
...CENTRAL COLORADO...

CITY           SKY/WX    TMP DP  RH WIND       PRES   REMARKS
ASPEN          CLOUDY    49  44  83 S6        30.33S
BUENA VISTA    MOCLDY    44  42  91 CALM      30.32F
COPPER MTN     MOCLDY    45  34  65 SW17      30.54S
BERTHOUD PASS  CLOUDY    34  32  93 NW28G46   30.52R WCI  20
COTTONWOOD PAS CLOUDY    52  37  58 CALM      30.42F
GUNNISON       PTCLDY    46  43  87 CALM      30.38R
KREMMLING      CLOUDY    50  45  81 CALM      30.31F
LEADVILLE      CLOUDY    47  37  68 N8        30.43S
MONARCH PASS   LGT RAIN  39  37  93 W29G39    30.62F VSB<1/4
SALIDA         MOCLDY    52  44  73 CALM      30.37S
SUNLIGHT       MOCLDY    45  43  93 CALM      30.50S FOG
WILKERSON PASS NOT AVBL
$$

COZ069>075-231100-
...SAN LUIS VALLEY/SANGRE DE CRISTO MOUNTAINS...

CITY           SKY/WX    TMP DP  RH WIND       PRES   REMARKS
ALAMOSA        CLEAR     40  38  93 CALM      30.33S
LA VETA PASS   CLOUDY    45  43  93 SW6       30.45S
SAGUACHE       PTCLDY    46  43  87 N10       30.35S
$$

COZ035-036-038>040-231100-
...NORTHERN COLORADO FRONT RANGE...

CITY           SKY/WX    TMP DP  RH WIND       PRES   REMARKS
DENVER INTL AP CLOUDY    60  49  66 SW8       30.13R
DMNS CITY PARK   N/A     58  51  78 S1        30.13S
AURORA         MOCLDY    56  50  79 S3        30.16R
FRONT RANGE AP MOCLDY    59  52  77 S8        30.14S
ERIE MUNI ARPT NOT AVBL
BOULDER MUN AP LGT RAIN  59  48  67 CALM      30.12S
CENTENNIAL     MOCLDY    57  48  72 S7        30.16S
BROOMFIELD     CLOUDY    61  50  67 S6        30.15R
FORT COLLINS   CLOUDY    57  46  67 CALM      30.13R
LONGMONT       LGT RAIN  59  49  69 CALM      30.14R
$$

COZ041-046-047-076>085-087-088-231100-
...PIKES PEAK/PALMER DIVIDE AND SOUTHERN FOOTHILLS...

CITY           SKY/WX    TMP DP  RH WIND       PRES   REMARKS
COLO. SPRINGS  CLEAR     51  42  71 N12       30.20S
A. F. ACADEMY  CLEAR     46  43  90 N10       30.21S
ELLICOTT       NOT AVBL
FALCON         CLEAR     53  42  66 NW5       30.24S
FORT CARSON    CLEAR     53  45  74 NW7       30.17S
LIMON          PTCLDY    51  49  92 W3        30.14S
MONUMENT HILL  MOCLDY    48  41  76 S6        30.23S
TRINIDAD       CLEAR     61  54  77 W18       30.16F
$$

COZ042>045-048>051-090-091-231100-
...NORTHEAST COLORADO...

CITY           SKY/WX    TMP DP  RH WIND       PRES   REMARKS
GREELEY ARPT   PTCLDY    55  46  71 N5        30.11R
AKRON          MOCLDY    55  55 100 S6        30.09R
BURLINGTON     PTCLDY    58  55  90 S8        30.07F
WRAY           PTCLDY   N/A N/A N/A S7        30.05F
STERLING       MOCLDY    61  59  94 S6        30.04S
HOLYOKE        PTCLDY    61  57  88 SW8       30.03S
FORT MORGAN    MOCLDY    56  54  92 W7        30.08F
$$

COZ086-089-092>099-231100-
...SOUTHEAST COLORADO...

CITY           SKY/WX    TMP DP  RH WIND       PRES   REMARKS
PUEBLO         CLEAR     53  48  83 NW7       30.12R
LA JUNTA       CLEAR     59  56  89 W12       30.06S
LAMAR          PTCLDY    58  55  90 S3        30.02F
SPRINGFIELD      N/A     62  58  86 S14       30.08S
$$


USA.gov is the U.S. government's official web portal to all federal, state and local government web resources and services.